Location: Unspecified
(0.0000°N, 0.0000°E)
Time: 13:15:24
(UTC+01:00)

ADEOS II - Visible Passes

Search period start: 24 November 2014 00:00
Search period end: 04 December 2014 00:00
Orbit: 801 x 803 km, 98.3° (Epoch: 23 November)

Date Brightness Start Highest point End Pass type
(mag) Time Alt. Az. Time Alt. Az. Time Alt. Az.
24 Nov 4.8 05:43:59 10° NE 05:48:00 23° ESE 05:52:01 10° SSE visible
25 Nov 5.6 05:21:12 10° E 05:22:04 10° ESE 05:22:55 10° ESE visible
25 Nov 5.2 19:35:04 10° SW 19:38:18 17° WSW 19:41:33 10° WNW visible
26 Nov 4.1 19:07:39 10° SSW 19:12:21 34° WSW 19:17:03 10° NW visible
27 Nov 3.6 06:04:39 10° NNE 06:09:33 41° ESE 06:14:28 10° S visible
28 Nov 4.9 05:39:48 10° NE 05:43:35 20° ESE 05:47:22 10° SSE visible
29 Nov 5.1 19:30:20 10° SW 19:33:53 19° WSW 19:37:26 10° WNW visible
30 Nov 3.9 19:03:06 10° S 19:07:55 37° WSW 19:12:44 10° NW visible
01 Dec 3.8 06:00:20 10° NE 06:05:07 37° ESE 06:09:56 10° SSE visible
02 Dec 5.0 05:35:39 10° ENE 05:39:10 18° ESE 05:42:40 10° SE visible
03 Dec 5.0 19:25:38 10° SSW 19:29:27 21° WSW 19:33:16 10° NW visible
